| time (UTC) | temp C | wind direction | speed KPH | gust KPH | rain 1hr cm | rain 24hr cm | rain mn cm | humidity % | barometer mb |
| 20260506231403 | 7 | 311 | 6.4 | 20.9 | 0.00 | 1.12 | 1.12 | 94 | 1003.0 |
| 20260506231209 | 7 | 269 | 6.4 | 16.1 | 0.00 | 1.12 | 1.12 | 94 | 1002.8 |
| 20260506230402 | 8 | 297 | 8.0 | 19.3 | 0.00 | 1.12 | 1.12 | 94 | 1002.7 |
| 20260506225902 | 8 | 356 | 9.7 | 19.3 | 0.00 | 1.12 | 1.12 | 93 | 1002.3 |
| 20260506225705 | 8 | 246 | 9.7 | 20.9 | 0.00 | 1.12 | 1.12 | 94 | 1002.3 |
| 20260506224901 | 8 | 281 | 6.4 | 20.9 | 0.00 | 1.12 | 1.12 | 95 | 1002.1 |
| 20260506224403 | 8 | 319 | 8.0 | 20.9 | 0.00 | 1.12 | 1.12 | 95 | 1002.0 |
| 20260506223904 | 8 | 250 | 14.5 | 27.4 | 0.00 | 1.12 | 1.12 | 95 | 1001.8 |
| 20260506223401 | 8 | 297 | 12.9 | 27.4 | 0.00 | 1.12 | 1.12 | 96 | 1001.6 |
| 20260506223155 | 8 | 281 | 12.9 | 25.7 | 0.00 | 1.12 | 1.12 | 96 | 1001.3 |
| 20260506222650 | 8 | 288 | 14.5 | 25.7 | 0.00 | 1.12 | 1.12 | 96 | 1001.3 |
| 20260506221843 | 9 | 300 | 12.9 | 27.4 | 0.03 | 1.12 | 1.12 | 95 | 1001.3 |
| 20260506221343 | 9 | 265 | 11.3 | 27.4 | 0.03 | 1.12 | 1.12 | 95 | 1001.3 |
| 20260506220843 | 9 | 257 | 12.9 | 27.4 | 0.03 | 1.12 | 1.12 | 95 | 1001.5 |
| 20260506220343 | 9 | 308 | 11.3 | 27.4 | 0.03 | 1.12 | 1.12 | 95 | 1001.4 |
| 20260506220147 | 10 | 286 | 12.9 | 27.4 | 0.03 | 1.12 | 1.12 | 95 | 1001.3 |
| 20260506215342 | 10 | 288 | 14.5 | 32.2 | 0.03 | 1.12 | 1.12 | 95 | 1001.3 |
| 20260506214844 | 10 | 266 | 14.5 | 32.2 | 0.03 | 1.12 | 1.12 | 95 | 1001.3 |
| 20260506214343 | 10 | 298 | 16.1 | 29.0 | 0.05 | 1.12 | 1.12 | 95 | 1001.2 |
| 20260506213844 | 10 | 281 | 16.1 | 29.0 | 0.05 | 1.12 | 1.12 | 95 | 1000.8 |
| 20260506213343 | 10 | 288 | 12.9 | 27.4 | 0.05 | 1.12 | 1.12 | 95 | 1000.8 |
| 20260506212843 | 10 | 276 | 14.5 | 27.4 | 0.05 | 1.12 | 1.12 | 94 | 1000.6 |
| 20260506212415 | 11 | 293 | 14.5 | 30.6 | 0.03 | 1.09 | 1.09 | 94 | 1000.3 |
| 20260506212401 | 11 | 311 | 14.5 | 32.2 | 0.05 | 1.12 | 1.09 | 94 | 1000.6 |
| 20260506212058 | 12 | 259 | 14.5 | 24.1 | 0.03 | 1.09 | 1.09 | 94 | 1000.1 |
| 20260506212018 | 11 | 285 | 14.5 | 32.2 | 0.03 | 1.09 | 1.09 | 94 | 1000.3 |
| 20260506210343 | 12 | 281 | 16.1 | 29.0 | 0.03 | 1.09 | 1.09 | 93 | 1000.1 |
| 20260506205845 | 12 | 262 | 14.5 | 30.6 | 0.03 | 1.09 | 1.09 | 93 | 1000.0 |
| 20260506205343 | 13 | 262 | 11.3 | 30.6 | 0.03 | 1.09 | 1.09 | 94 | 999.8 |
| 20260506204844 | 13 | 260 | 9.7 | 20.9 | 0.03 | 1.09 | 1.09 | 96 | 999.8 |
| 20260506204637 | 14 | 196 | 9.7 | 22.5 | 0.00 | 1.07 | 1.07 | 96 | 999.4 |
| 20260506203846 | 14 | 206 | 11.3 | 22.5 | 0.00 | 1.07 | 1.07 | 95 | 999.4 |
| 20260506203345 | 14 | 204 | 9.7 | 19.3 | 0.00 | 1.07 | 1.07 | 95 | 999.3 |
| 20260506202847 | 14 | 226 | 9.7 | 16.1 | 0.00 | 1.07 | 1.07 | 95 | 999.4 |
| 20260506202339 | 14 | 250 | 11.3 | 24.1 | 0.00 | 1.07 | 1.07 | 96 | 999.3 |
| 20260506201928 | 13 | 231 | 9.7 | 24.1 | 0.00 | 1.07 | 1.07 | 95 | 999.5 |
| 20260506201906 | 13 | 221 | 11.3 | 24.1 | 0.00 | 1.07 | 1.07 | 95 | 999.4 |
| 20260506200923 | 13 | 250 | 8.0 | 19.3 | 0.00 | 1.07 | 1.07 | 95 | 999.6 |
| 20260506200859 | 13 | 206 | 9.7 | 20.9 | 0.00 | 1.07 | 1.07 | 96 | 999.6 |
| 20260506195807 | 14 | 218 | 9.7 | 20.9 | 0.00 | 1.07 | 1.07 | 95 | 999.6 |
| 20260506195306 | 14 | 248 | 9.7 | 20.9 | 0.00 | 1.07 | 1.07 | 95 | 999.7 |
| 20260506194804 | 14 | 225 | 9.7 | 20.9 | 0.00 | 1.07 | 1.07 | 95 | 999.7 |
| 20260506194303 | 14 | 271 | 9.7 | 17.7 | 0.00 | 1.07 | 1.07 | 95 | 999.7 |
| 20260506193803 | 14 | 234 | 9.7 | 17.7 | 0.00 | 1.07 | 1.07 | 95 | 999.7 |
| 20260506193301 | 14 | 236 | 11.3 | 24.1 | 0.00 | 1.07 | 1.07 | 95 | 999.8 |
| 20260506192805 | 14 | 222 | 12.9 | 24.1 | 0.00 | 1.07 | 1.07 | 95 | 999.8 |
| 20260506192300 | 14 | 208 | 12.9 | 24.1 | 0.00 | 1.07 | 1.07 | 95 | 999.7 |
| 20260506191803 | 13 | 221 | 12.9 | 30.6 | 0.00 | 1.07 | 1.07 | 95 | 999.7 |
| 20260506191302 | 13 | 234 | 12.9 | 30.6 | 0.00 | 1.07 | 1.07 | 96 | 999.7 |
| 20260506190801 | 13 | 222 | 11.3 | 19.3 | 0.00 | 1.07 | 1.07 | 96 | 999.8 |
| 20260506190301 | 13 | 211 | 11.3 | 19.3 | 0.00 | 1.07 | 1.07 | 96 | 999.8 |
| 20260506185801 | 13 | 231 | 9.7 | 17.7 | 0.00 | 1.07 | 1.07 | 96 | 999.8 |
| 20260506185300 | 13 | 245 | 9.7 | 20.9 | 0.00 | 1.07 | 1.07 | 96 | 999.8 |
| 20260506184801 | 13 | 248 | 11.3 | 22.5 | 0.00 | 1.07 | 1.07 | 96 | 999.8 |
| 20260506184557 | 13 | 223 | 11.3 | 25.7 | 0.00 | 1.07 | 1.07 | 96 | 999.9 |
| 20260506184104 | 13 | 220 | 12.9 | 25.7 | 0.00 | 1.07 | 1.07 | 96 | 999.9 |
| 20260506183302 | 13 | 229 | 11.3 | 24.1 | 0.00 | 1.07 | 1.07 | 96 | 1000.0 |
| 20260506182757 | 13 | 217 | 11.3 | 19.3 | 0.00 | 1.07 | 1.07 | 96 | 1000.0 |
| 20260506182251 | 13 | 204 | 12.9 | 29.0 | 0.03 | 1.07 | 1.07 | 96 | 1000.1 |
| 20260506181744 | 13 | 203 | 12.9 | 29.0 | 0.03 | 1.07 | 1.07 | 96 | 1000.0 |
| 20260506181239 | 13 | 202 | 11.3 | 25.7 | 0.05 | 1.07 | 1.07 | 97 | 1000.0 |
| 20260506181035 | 13 | 211 | 11.3 | 27.4 | 0.05 | 1.07 | 1.07 | 97 | 1000.1 |
| 20260506180230 | 13 | 209 | 11.3 | 19.3 | 0.08 | 1.07 | 1.07 | 97 | 1000.2 |
| 20260506175731 | 13 | 255 | 9.7 | 19.3 | 0.10 | 1.07 | 1.07 | 97 | 1000.2 |
| 20260506175230 | 13 | 214 | 8.0 | 17.7 | 0.13 | 1.07 | 1.07 | 97 | 1000.2 |
| 20260506174733 | 13 | 213 | 8.0 | 19.3 | 0.13 | 1.07 | 1.07 | 97 | 1000.1 |
| 20260506174233 | 13 | 219 | 8.0 | 19.3 | 0.18 | 1.07 | 1.07 | 97 | 1000.2 |
| 20260506173733 | 13 | 245 | 8.0 | 16.1 | 0.18 | 1.07 | 1.07 | 97 | 1000.2 |
| 20260506173230 | 13 | 207 | 8.0 | 16.1 | 0.20 | 1.07 | 1.07 | 97 | 1000.2 |
| 20260506172730 | 13 | 210 | 8.0 | 16.1 | 0.20 | 1.07 | 1.07 | 97 | 1000.2 |
| 20260506172527 | 13 | 201 | 8.0 | 20.9 | 0.20 | 1.04 | 1.04 | 97 | 1000.3 |
| 20260506172035 | 13 | 231 | 8.0 | 20.9 | 0.20 | 1.04 | 1.04 | 97 | 1000.3 |
| 20260506171231 | 13 | 223 | 8.0 | 16.1 | 0.20 | 1.02 | 1.02 | 97 | 1000.5 |
| 20260506170730 | 13 | 250 | 8.0 | 19.3 | 0.23 | 1.02 | 1.02 | 97 | 1000.5 |
| 20260506170527 | 13 | 229 | 8.0 | 19.3 | 0.23 | 0.99 | 0.99 | 97 | 1000.5 |
| 20260506170036 | 13 | 176 | 9.7 | 22.5 | 0.20 | 0.97 | 0.97 | 97 | 1000.5 |
| 20260506165230 | 13 | 185 | 9.7 | 22.5 | 0.20 | 0.94 | 0.94 | 97 | 1000.5 |
| 20260506164730 | 13 | 220 | 9.7 | 17.7 | 0.23 | 0.94 | 0.94 | 97 | 1000.5 |
| 20260506164231 | 13 | 210 | 9.7 | 19.3 | 0.18 | 0.89 | 0.89 | 97 | 1000.5 |
| 20260506164030 | 13 | 243 | 9.7 | 24.1 | 0.20 | 0.89 | 0.89 | 97 | 1000.5 |
| 20260506163221 | 13 | 208 | 11.3 | 24.1 | 0.23 | 0.86 | 0.86 | 97 | 1000.5 |
| 20260506162715 | 13 | 271 | 11.3 | 20.9 | 0.23 | 0.86 | 0.86 | 97 | 1000.3 |
| 20260506162209 | 13 | 224 | 11.3 | 27.4 | 0.25 | 0.84 | 0.84 | 97 | 1000.5 |
| 20260506161703 | 13 | 206 | 9.7 | 27.4 | 0.28 | 0.84 | 0.84 | 97 | 1000.6 |
| 20260506161204 | 13 | 214 | 8.0 | 14.5 | 0.25 | 0.81 | 0.81 | 97 | 1000.6 |
| 20260506160704 | 13 | 259 | 8.0 | 19.3 | 0.25 | 0.79 | 0.79 | 97 | 1000.7 |
| 20260506160425 | 13 | 223 | 9.7 | 19.3 | 0.23 | 0.74 | 0.74 | 97 | 1000.7 |
| 20260506160417 | 13 | 245 | 11.3 | 19.3 | 0.23 | 0.74 | 0.74 | 97 | 1000.9 |
| 20260506160339 | 13 | 236 | 9.7 | 19.3 | 0.25 | 0.76 | 0.76 | 97 | 1000.9 |
| 20260506154705 | 13 | 219 | 12.9 | 30.6 | 0.23 | 0.71 | 0.71 | 97 | 1000.9 |
| 20260506154205 | 13 | 220 | 12.9 | 30.6 | 0.23 | 0.71 | 0.69 | 97 | 1000.9 |
| 20260506153705 | 13 | 170 | 9.7 | 22.5 | 0.20 | 0.69 | 0.66 | 97 | 1001.1 |
| 20260506153204 | 13 | 145 | 9.7 | 19.3 | 0.15 | 0.64 | 0.64 | 97 | 1001.0 |
| 20260506153001 | 13 | 194 | 9.7 | 25.7 | 0.13 | 0.61 | 0.61 | 97 | 1001.0 |
| 20260506152205 | 13 | 226 | 9.7 | 25.7 | 0.10 | 0.58 | 0.58 | 97 | 1000.9 |
| 20260506151703 | 13 | 223 | 9.7 | 16.1 | 0.10 | 0.56 | 0.56 | 97 | 1000.7 |
| 20260506151205 | 13 | 231 | 9.7 | 16.1 | 0.13 | 0.56 | 0.56 | 97 | 1000.7 |
| 20260506150704 | 13 | 0 | 8.0 | 16.1 | 0.15 | 0.53 | 0.53 | 97 | 1000.7 |
| 20260506150505 | 13 | 208 | 6.4 | 16.1 | 0.15 | 0.51 | 0.51 | 97 | 1000.6 |
| 20260506145703 | 13 | 286 | 8.0 | 19.3 | 0.18 | 0.51 | 0.51 | 97 | 1000.6 |
| 20260506145203 | 13 | 252 | 9.7 | 19.3 | 0.20 | 0.51 | 0.51 | 97 | 1000.7 |
| 20260506144703 | 13 | 210 | 8.0 | 17.7 | 0.20 | 0.48 | 0.48 | 97 | 1000.7 |
| 20260506144203 | 13 | 222 | 8.0 | 16.1 | 0.23 | 0.48 | 0.48 | 97 | 1000.8 |
| 20260506143704 | 13 | 203 | 8.0 | 16.1 | 0.25 | 0.48 | 0.48 | 97 | 1000.7 |
| 20260506143205 | 13 | 187 | 8.0 | 16.1 | 0.28 | 0.48 | 0.48 | 96 | 1000.6 |
| 20260506143007 | 13 | 191 | 8.0 | 16.1 | 0.30 | 0.48 | 0.48 | 96 | 1000.8 |
| 20260506142204 | 13 | 204 | 6.4 | 14.5 | 0.33 | 0.48 | 0.46 | 96 | 1000.9 |
| 20260506141703 | 13 | 192 | 6.4 | 12.9 | 0.33 | 0.46 | 0.46 | 96 | 1001.0 |
| 20260506141203 | 13 | 220 | 6.4 | 17.7 | 0.33 | 0.43 | 0.43 | 95 | 1001.1 |
| 20260506140703 | 13 | 174 | 8.0 | 17.7 | 0.30 | 0.38 | 0.38 | 95 | 1001.2 |
| 20260506140204 | 13 | 250 | 6.4 | 16.1 | 0.30 | 0.36 | 0.36 | 95 | 1001.3 |
| 20260506135947 | 13 | 240 | 6.4 | 16.1 | 0.30 | 0.33 | 0.33 | 95 | 1001.4 |
| 20260506135201 | 13 | 173 | 8.0 | 16.1 | 0.30 | 0.30 | 0.30 | 94 | 1001.4 |
| 20260506134701 | 13 | 226 | 8.0 | 16.1 | 0.28 | 0.28 | 0.28 | 94 | 1001.4 |
| 20260506134202 | 13 | 216 | 9.7 | 16.1 | 0.25 | 0.25 | 0.25 | 93 | 1001.5 |
| 20260506133700 | 13 | 233 | 8.0 | 14.5 | 0.23 | 0.23 | 0.23 | 93 | 1001.5 |
| 20260506133201 | 13 | 186 | 9.7 | 17.7 | 0.20 | 0.20 | 0.20 | 93 | 1001.6 |
| 20260506132701 | 13 | 197 | 9.7 | 20.9 | 0.18 | 0.18 | 0.18 | 92 | 1001.7 |
| 20260506132319 | 13 | 203 | 11.3 | 20.9 | 0.13 | 0.13 | 0.10 | 91 | 1001.8 |
| 20260506132251 | 13 | 236 | 9.7 | 20.9 | 0.15 | 0.15 | 0.15 | 92 | 1001.7 |
| 20260506131203 | 13 | 239 | 9.7 | 19.3 | 0.10 | 0.10 | 0.10 | 90 | 1001.8 |
| 20260506130703 | 13 | 229 | 8.0 | 17.7 | 0.08 | 0.08 | 0.08 | 89 | 1001.8 |
| 20260506130202 | 14 | 202 | 8.0 | 16.1 | 0.05 | 0.05 | 0.03 | 87 | 1001.8 |
| 20260506125702 | 14 | 226 | 8.0 | 14.5 | 0.03 | 0.03 | 0.03 | 86 | 1001.7 |
| 20260506125204 | 14 | 229 | 8.0 | 14.5 | 0.00 | 0.00 | 0.00 | 84 | 1001.5 |
| 20260506124703 | 15 | 193 | 8.0 | 14.5 | 0.00 | 0.00 | 0.00 | 82 | 1001.4 |
| 20260506124202 | 15 | 216 | 6.4 | 14.5 | 0.00 | 0.00 | 0.00 | 80 | 1001.3 |
| 20260506123702 | 15 | 220 | 8.0 | 12.9 | 0.00 | 0.00 | 0.00 | 79 | 1001.2 |
| 20260506123203 | 15 | 213 | 8.0 | 16.1 | 0.00 | 0.00 | 0.00 | 78 | 1001.2 |
| 20260506122703 | 15 | 233 | 6.4 | 16.1 | 0.00 | 0.00 | 0.00 | 77 | 1001.2 |
| 20260506122202 | 15 | 221 | 6.4 | 14.5 | 0.00 | 0.00 | 0.00 | 76 | 1001.3 |
| 20260506121703 | 15 | 204 | 8.0 | 16.1 | 0.00 | 0.00 | 0.00 | 75 | 1001.3 |
| 20260506121202 | 15 | 194 | 8.0 | 16.1 | 0.00 | 0.00 | 0.00 | 74 | 1001.3 |
| 20260506120703 | 15 | 206 | 6.4 | 12.9 | 0.00 | 0.00 | 0.00 | 73 | 1001.4 |
| 20260506120202 | 15 | 210 | 4.8 | 12.9 | 0.00 | 0.00 | 0.00 | 72 | 1001.5 |
| 20260506115704 | 15 | 219 | 4.8 | 12.9 | 0.00 | 0.00 | 0.00 | 72 | 1001.4 |
| 20260506115456 | 15 | 210 | 6.4 | 12.9 | 0.00 | 0.00 | 0.00 | 72 | 1001.4 |
| 20260506114704 | 15 | 192 | 8.0 | 12.9 | 0.00 | 0.00 | 0.00 | 72 | 1001.4 |
| 20260506114204 | 15 | 165 | 8.0 | 16.1 | 0.00 | 0.00 | 0.00 | 71 | 1001.4 |
| 20260506113704 | 15 | 220 | 8.0 | 17.7 | 0.00 | 0.00 | 0.00 | 72 | 1001.4 |
| 20260506113204 | 15 | 227 | 6.4 | 17.7 | 0.00 | 0.00 | 0.00 | 71 | 1001.4 |
| 20260506112705 | 15 | 214 | 6.4 | 14.5 | 0.00 | 0.00 | 0.00 | 71 | 1001.3 |
| 20260506112500 | 15 | 178 | 6.4 | 12.9 | 0.00 | 0.00 | 0.00 | 71 | 1001.4 |
| 20260506111703 | 15 | 170 | 4.8 | 11.3 | 0.00 | 0.00 | 0.00 | 71 | 1001.4 |
| 20260506111205 | 15 | 202 | 4.8 | 9.7 | 0.00 | 0.00 | 0.00 | 70 | 1001.5 |
| 20260506110704 | 15 | 203 | 4.8 | 9.7 | 0.00 | 0.00 | 0.00 | 70 | 1001.4 |
| 20260506110203 | 15 | 210 | 4.8 | 8.0 | 0.00 | 0.00 | 0.00 | 70 | 1001.4 |
| 20260506105702 | 15 | 223 | 4.8 | 9.7 | 0.00 | 0.00 | 0.00 | 70 | 1001.4 |
| 20260506105202 | 15 | 240 | 6.4 | 11.3 | 0.00 | 0.00 | 0.00 | 70 | 1001.3 |
| 20260506104702 | 15 | 219 | 4.8 | 11.3 | 0.00 | 0.00 | 0.00 | 70 | 1001.2 |
| 20260506104202 | 15 | 253 | 4.8 | 12.9 | 0.00 | 0.00 | 0.00 | 70 | 1001.0 |
| 20260506104000 | 15 | 238 | 4.8 | 12.9 | 0.00 | 0.00 | 0.00 | 69 | 1001.1 |
| 20260506103500 | 15 | 223 | 3.2 | 8.0 | 0.00 | 0.00 | 0.00 | 70 | 1001.0 |
| 20260506102703 | 15 | 209 | 4.8 | 11.3 | 0.00 | 0.00 | 0.00 | 69 | 1001.1 |
| 20260506102202 | 15 | 188 | 3.2 | 11.3 | 0.00 | 0.00 | 0.00 | 68 | 1001.1 |
| 20260506101703 | 15 | 229 | 3.2 | 8.0 | 0.00 | 0.00 | 0.00 | 68 | 1001.0 |
| 20260506101202 | 15 | 213 | 4.8 | 9.7 | 0.00 | 0.00 | 0.00 | 68 | 1000.9 |
| 20260506100959 | 15 | 220 | 4.8 | 11.3 | 0.00 | 0.00 | 0.00 | 68 | 1001.0 |
| 20260506100203 | 15 | 214 | 4.8 | 11.3 | 0.00 | 0.00 | 0.00 | 67 | 1001.1 |
| 20260506095702 | 15 | 213 | 3.2 | 9.7 | 0.00 | 0.00 | 0.00 | 67 | 1001.2 |
| 20260506095203 | 15 | 219 | 3.2 | 8.0 | 0.00 | 0.00 | 0.00 | 66 | 1001.2 |
| 20260506094703 | 15 | 233 | 3.2 | 8.0 | 0.00 | 0.00 | 0.00 | 66 | 1001.2 |
| 20260506094205 | 15 | 150 | 3.2 | 8.0 | 0.00 | 0.00 | 0.00 | 66 | 1001.1 |
| 20260506093701 | 15 | 227 | 3.2 | 8.0 | 0.00 | 0.00 | 0.00 | 65 | 1001.0 |
| 20260506093201 | 15 | 221 | 3.2 | 8.0 | 0.00 | 0.00 | 0.00 | 65 | 1000.9 |
| 20260506092701 | 15 | 227 | 3.2 | 8.0 | 0.00 | 0.00 | 0.00 | 65 | 1000.9 |
| 20260506092201 | 15 | 223 | 3.2 | 11.3 | 0.00 | 0.00 | 0.00 | 65 | 1000.9 |
| 20260506091956 | 15 | 199 | 4.8 | 11.3 | 0.00 | 0.00 | 0.00 | 64 | 1001.0 |
| 20260506091200 | 15 | 233 | 4.8 | 9.7 | 0.00 | 0.00 | 0.00 | 64 | 1001.0 |
| 20260506090701 | 15 | 236 | 4.8 | 9.7 | 0.00 | 0.00 | 0.00 | 64 | 1001.0 |
| 20260506090609 | 15 | 222 | 6.4 | 11.3 | 0.00 | 0.00 | 0.00 | 63 | 1001.2 |
| 20260506090248 | 15 | 238 | 6.4 | 9.7 | 0.00 | 0.00 | 0.00 | 64 | 1001.1 |
| 20260506085506 | 15 | 230 | 4.8 | 11.3 | 0.00 | 0.00 | 0.00 | 64 | 1001.3 |
| 20260506084703 | 15 | 202 | 4.8 | 11.3 | 0.00 | 0.00 | 0.00 | 65 | 1001.3 |
| 20260506084201 | 15 | 231 | 4.8 | 12.9 | 0.00 | 0.00 | 0.00 | 65 | 1001.5 |
| 20260506083701 | 15 | 231 | 6.4 | 12.9 | 0.00 | 0.00 | 0.00 | 65 | 1001.4 |
| 20260506083203 | 15 | 233 | 6.4 | 11.3 | 0.00 | 0.00 | 0.00 | 65 | 1001.4 |
| 20260506082704 | 15 | 227 | 4.8 | 9.7 | 0.00 | 0.00 | 0.00 | 66 | 1001.4 |
| 20260506082204 | 15 | 195 | 3.2 | 8.0 | 0.00 | 0.00 | 0.00 | 65 | 1001.1 |
| 20260506081704 | 15 | 215 | 3.2 | 6.4 | 0.00 | 0.00 | 0.00 | 67 | 1001.2 |
| 20260506081500 | 15 | 231 | 3.2 | 6.4 | 0.00 | 0.00 | 0.00 | 67 | 1001.1 |
| 20260506080701 | 15 | 262 | 3.2 | 6.4 | 0.00 | 0.00 | 0.00 | 66 | 1001.1 |
| 20260506080201 | 15 | 222 | 3.2 | 6.4 | 0.00 | 0.00 | 0.00 | 66 | 1001.0 |
| 20260506073201 | 15 | 300 | 3.2 | 6.4 | 0.00 | 0.00 | 0.00 | 68 | 1001.4 |
| 20260506072701 | 15 | 288 | 3.2 | 8.0 | 0.00 | 0.00 | 0.00 | 66 | 1001.4 |
| 20260506072201 | 15 | 201 | 3.2 | 8.0 | 0.00 | 0.00 | 0.00 | 67 | 1001.4 |
| 20260506071701 | 15 | 269 | 3.2 | 8.0 | 0.00 | 0.00 | 0.00 | 67 | 1001.5 |
| 20260506071200 | 15 | 226 | 3.2 | 8.0 | 0.00 | 0.00 | 0.00 | 67 | 1001.5 |
| 20260506070700 | 15 | 233 | 3.2 | 6.4 | 0.00 | 0.00 | 0.00 | 68 | 1001.6 |
| 20260506070203 | 14 | 220 | 3.2 | 6.4 | 0.00 | 0.00 | 0.00 | 68 | 1001.6 |
| 20260506062200 | 15 | 223 | 3.2 | 6.4 | 0.00 | 0.00 | 0.00 | 69 | 1001.9 |
| 20260506061701 | 14 | 216 | 3.2 | 8.0 | 0.00 | 0.00 | 0.00 | 68 | 1001.9 |
| 20260506061201 | 15 | 227 | 3.2 | 8.0 | 0.00 | 0.00 | 0.00 | 69 | 1002.0 |
| 20260506060701 | 15 | 233 | 3.2 | 6.4 | 0.00 | 0.00 | 0.00 | 69 | 1001.9 |
| 20260506060200 | 15 | 213 | 3.2 | 6.4 | 0.00 | 0.00 | 0.00 | 69 | 1002.0 |
| 20260506051205 | 14 | 253 | 3.2 | 4.8 | 0.00 | 0.00 | 0.00 | 71 | 1002.5 |
| 20260506050705 | 14 | 269 | 3.2 | 4.8 | 0.00 | 0.00 | 0.00 | 72 | 1002.3 |
| 20260506050205 | 14 | 286 | 3.2 | 4.8 | 0.00 | 0.00 | 0.00 | 72 | 1002.3 |
| 20260506044701 | 15 | 250 | 1.6 | 3.2 | 0.00 | 0.00 | 0.00 | 71 | 1002.2 |
| 20260506044202 | 15 | 240 | 3.2 | 6.4 | 0.00 | 0.00 | 0.00 | 71 | 1002.2 |
| 20260506043701 | 15 | 245 | 3.2 | 6.4 | 0.00 | 0.00 | 0.00 | 71 | 1002.5 |
| 20260506043202 | 15 | 269 | 3.2 | 4.8 | 0.00 | 0.00 | 0.00 | 71 | 1002.5 |
| 20260506042701 | 15 | 283 | 3.2 | 4.8 | 0.00 | 0.00 | 0.00 | 70 | 1002.5 |
| 20260506042201 | 15 | 269 | 3.2 | 6.4 | 0.00 | 0.00 | 0.00 | 70 | 1002.6 |
| 20260506041701 | 15 | 269 | 3.2 | 6.4 | 0.00 | 0.00 | 0.00 | 69 | 1002.8 |
| 20260506041458 | 15 | 283 | 3.2 | 4.8 | 0.00 | 0.00 | 0.00 | 69 | 1002.6 |
| 20260506040809 | 16 | 279 | 1.6 | 3.2 | 0.00 | 0.00 | 0.00 | 68 | 1002.8 |
| 20260506040743 | 15 | 276 | 3.2 | 4.8 | 0.00 | 0.00 | 0.00 | 68 | 1002.7 |
| 20260506035950 | 16 | 269 | 1.6 | 4.8 | 0.00 | 0.00 | 0.00 | 67 | 1002.7 |
| 20260506035202 | 16 | 233 | 3.2 | 4.8 | 0.00 | 0.00 | 0.00 | 66 | 1002.7 |
| 20260506034700 | 16 | 253 | 3.2 | 4.8 | 0.00 | 0.00 | 0.00 | 66 | 1002.9 |
| 20260506034201 | 16 | 277 | 3.2 | 8.0 | 0.00 | 0.00 | 0.00 | 66 | 1002.8 |
| 20260506033700 | 16 | 258 | 3.2 | 8.0 | 0.00 | 0.00 | 0.00 | 65 | 1002.7 |
| 20260506033210 | 16 | 240 | 3.2 | 8.0 | 0.00 | 0.00 | 0.00 | 64 | 1002.6 |
| 20260506033202 | 16 | 257 | 3.2 | 8.0 | 0.00 | 0.00 | 0.00 | 65 | 1002.8 |
| 20260506033157 | 17 | 201 | 3.2 | 6.4 | 0.00 | 0.00 | 0.00 | 64 | 1002.6 |
| 20260506033150 | 16 | 209 | 3.2 | 8.0 | 0.00 | 0.00 | 0.00 | 64 | 1002.8 |
| 20260506031202 | 17 | 240 | 3.2 | 6.4 | 0.00 | 0.00 | 0.00 | 63 | 1002.7 |
| 20260506030702 | 17 | 257 | 3.2 | 6.4 | 0.00 | 0.00 | 0.00 | 62 | 1002.7 |
| 20260506030157 | 17 | 248 | 3.2 | 6.4 | 0.00 | 0.00 | 0.00 | 62 | 1002.6 |
| 20260506025652 | 17 | 245 | 3.2 | 6.4 | 0.00 | 0.00 | 0.00 | 61 | 1002.6 |
| 20260506025145 | 17 | 252 | 3.2 | 6.4 | 0.00 | 0.00 | 0.00 | 61 | 1002.6 |
| 20260506024638 | 18 | 214 | 4.8 | 9.7 | 0.00 | 0.00 | 0.00 | 60 | 1002.6 |
| 20260506024133 | 18 | 238 | 4.8 | 9.7 | 0.00 | 0.00 | 0.00 | 59 | 1002.6 |
| 20260506023629 | 18 | 231 | 3.2 | 8.0 | 0.00 | 0.00 | 0.00 | 59 | 1002.7 |
| 20260506023130 | 18 | 201 | 3.2 | 4.8 | 0.00 | 0.00 | 0.00 | 59 | 1002.7 |
| 20260506022630 | 18 | 236 | 3.2 | 6.4 | 0.00 | 0.00 | 0.00 | 58 | 1002.7 |
| 20260506022130 | 18 | 269 | 4.8 | 9.7 | 0.00 | 0.00 | 0.00 | 58 | 1002.7 |
| 20260506021630 | 19 | 253 | 4.8 | 9.7 | 0.00 | 0.00 | 0.00 | 57 | 1002.6 |
| 20260506021431 | 19 | 233 | 6.4 | 11.3 | 0.00 | 0.00 | 0.00 | 56 | 1002.7 |
| 20260506020630 | 19 | 213 | 6.4 | 11.3 | 0.00 | 0.00 | 0.00 | 56 | 1002.7 |
| 20260506020131 | 19 | 206 | 3.2 | 9.7 | 0.00 | 0.00 | 0.00 | 56 | 1002.6 |
| 20260506015927 | 19 | 223 | 3.2 | 6.4 | 0.00 | 0.00 | 0.00 | 55 | 1002.7 |
| 20260506015132 | 19 | 208 | 4.8 | 8.0 | 0.00 | 0.00 | 0.00 | 55 | 1002.6 |
| 20260506014629 | 19 | 245 | 3.2 | 8.0 | 0.00 | 0.00 | 0.00 | 55 | 1002.7 |
| 20260506014245 | 20 | 213 | 4.8 | 9.7 | 0.00 | 0.00 | 0.00 | 54 | 1002.7 |
| 20260506014134 | 19 | 220 | 3.2 | 6.4 | 0.00 | 0.00 | 0.00 | 54 | 1002.6 |
| 20260506014006 | 20 | 213 | 4.8 | 9.7 | 0.00 | 0.00 | 0.00 | 54 | 1002.7 |
| 20260506013130 | 20 | 221 | 4.8 | 9.7 | 0.00 | 0.00 | 0.00 | 54 | 1002.5 |
| 20260506012629 | 19 | 170 | 4.8 | 11.3 | 0.00 | 0.00 | 0.00 | 54 | 1002.3 |
| 20260506012130 | 19 | 227 | 4.8 | 11.3 | 0.00 | 0.00 | 0.00 | 54 | 1002.2 |
| 20260506011630 | 20 | 269 | 4.8 | 12.9 | 0.00 | 0.00 | 0.00 | 54 | 1002.1 |
| 20260506011127 | 20 | 226 | 4.8 | 12.9 | 0.00 | 0.00 | 0.00 | 54 | 1002.2 |
| 20260506010621 | 20 | 286 | 6.4 | 12.9 | 0.00 | 0.00 | 0.00 | 54 | 1002.1 |
| 20260506010114 | 20 | 238 | 6.4 | 12.9 | 0.00 | 0.00 | 0.00 | 54 | 1002.1 |
| 20260506005909 | 20 | 231 | 4.8 | 11.3 | 0.00 | 0.00 | 0.00 | 54 | 1002.0 |
| 20260506005109 | 20 | 262 | 4.8 | 9.7 | 0.00 | 0.00 | 0.00 | 54 | 1001.9 |
| 20260506004910 | 20 | 243 | 4.8 | 9.7 | 0.00 | 0.00 | 0.00 | 53 | 1002.0 |
| 20260506004109 | 20 | 226 | 4.8 | 9.7 | 0.00 | 0.00 | 0.00 | 54 | 1002.0 |
| 20260506003610 | 20 | 240 | 4.8 | 14.5 | 0.00 | 0.00 | 0.00 | 54 | 1002.0 |
| 20260506003110 | 20 | 227 | 6.4 | 14.5 | 0.00 | 0.00 | 0.00 | 53 | 1002.0 |
| 20260506002610 | 20 | 240 | 4.8 | 11.3 | 0.00 | 0.00 | 0.00 | 53 | 1002.1 |
| 20260506002110 | 20 | 226 | 6.4 | 11.3 | 0.00 | 0.00 | 0.00 | 53 | 1002.0 |
| 20260506001610 | 20 | 233 | 6.4 | 11.3 | 0.00 | 0.00 | 0.00 | 53 | 1001.9 |
| 20260506001111 | 20 | 245 | 4.8 | 9.7 | 0.00 | 0.00 | 0.00 | 53 | 1002.0 |
| 20260506000611 | 20 | 321 | 4.8 | 16.1 | 0.00 | 0.00 | 0.00 | 52 | 1001.9 |
| 20260506000110 | 20 | 222 | 6.4 | 16.1 | 0.00 | 0.00 | 0.00 | 52 | 1001.9 |
| 20260505235908 | 20 | 262 | 4.8 | 12.9 | 0.00 | 0.00 | 0.00 | 52 | 1001.9 |
| 20260505235111 | 20 | 226 | 4.8 | 11.3 | 0.00 | 0.00 | 0.00 | 52 | 1001.9 |
| 20260505234613 | 20 | 220 | 4.8 | 11.3 | 0.00 | 0.00 | 0.00 | 51 | 1001.9 |
| 20260505234109 | 20 | 236 | 6.4 | 11.3 | 0.00 | 0.00 | 0.00 | 52 | 1001.8 |
| 20260505233612 | 21 | 243 | 6.4 | 16.1 | 0.00 | 0.00 | 0.00 | 51 | 1001.7 |
| 20260505233107 | 21 | 216 | 6.4 | 16.1 | 0.00 | 0.00 | 0.00 | 50 | 1001.8 |
| 20260505232604 | 21 | 238 | 4.8 | 11.3 | 0.00 | 0.00 | 0.00 | 51 | 1001.7 |